STARLINK-11266, 60732

Orbit data source: Space-Track

STARLINK-11266, 60732 is a payload satellite owned by SpaceX/Seattle (US) in LEO that was launched on Wed, 28 Aug 2024 UTC via an FALCON 9 launch vehicle from the Air Force Eastern Test Range (AFETR). Payload-class satellites include a variety of spacecraft equipped with specific instruments for various scientific and technological missions. These include communications satellites like Starlink; space stations such as the ISS; scientific satellites like the Hubble; Earth observation satellites from companies like Planet Labs, Umbra, and HawkEye 360; GPS; miniature CubeSats for education and research; and military/defense satellites.

Loading next visibility...
Identifier
60732, 2024-152N
Orbit
LEO
Last TLE update
1 day ago
Origin
Manufacturer
SpaceX/Seattle
Mission
Operational Commercial Communications
Bus & Motor
STARLINK V2M, Unknown motor
Mass
730 kg wet, ~700 kg dry
Launch date (UTC)
2024-08-28 (11 months ago)
Launch vehicle
FALCON 9
Launch site
Air Force Eastern Test Range (AFETR)
Object type
Payload
Rocket body
Debris
Shape & HBR
Box + 2 Pan, 14.5 m
Radar Cross Section
36.964 m², Large (>1 m²)

Expand to show TLE details & history

TLE from 1 day ago
0 STARLINK-11266
1 60732U 24152N   25199.34603098 -.00000842  00000-0 -20916-5 0  9990
2 60732  53.1590 191.1132 0001057  84.8234 275.2904 15.69702816 52037
Epoch: 2025-07-18T08:18Z
TLE epoch observation values (Epoch: 2025-07-18T08:18:17.076Z)
Latitude
-0.00007°
Longitude
130.14318°
Altitude
360.597 km
Speed
7.694 km/s
True Right ascension
12h 44m 27s
True Declination
0° 00' 00"
Sunlit
Object was in daylight at epoch
Visualization orbit readout
Latitude
-34.21301°
Longitude
93.46791°
Altitude
371.041 km
Speed
7.686 km/s
Apparent Right ascension
12h 42m 02s
Apparent Declination
-43° 55' 27"
Sunlit
Object is in daylight
Visualization observer readout
Local Sidereal Time
03:30:45
Azimuth
111.405° ESE
Elevation
-58.703°
Doppler factor
1
Orbital elements
Apogee altitude
360.72 km
Perigee altitude
359.296 km
Semi-major axis
6,738.145 km
Eccentricity
0.00011
Inclination
53.159°
RAAN
191.1132°
Arg. of periapsis
84.8234°
True anomaly
275.27834°
Mean anomaly
275.2904°
Eccentric anomaly
275.28437°
Mean motion
3.92403 °/min
Orbital period
91.74 mins
BSTAR
-0.0000020916
Loading maneuver chart data...
Loading SW <> Apogee altitude chart data...
Loading historical data...
Loading historical data...
Loading historical data...
Loading historical data...
Loading historical data...
Loading historical data...
Loading historical data...
|